Change the Weather History Date:

Tuesday, May 7, 2013

  Actual Average Record
Temperature  
Mean Temperature 66 °F -  
Max Temperature 74 °F 76 °F 93 °F (1986)
Min Temperature 57 °F 54 °F 43 °F (1970)
Growing Degree Days 16 (Base 50)    
Moisture  
Dew Point 58 °F    
Average Humidity 79    
Maximum Humidity 100    
Minimum Humidity 45    
Precipitation  
Precipitation 0.00 in - - ()
Sea Level Pressure  
Sea Level Pressure 29.91 in    
Wind  
Wind Speed 7 mph (SSE)    
Max Wind Speed 15 mph    
Max Gust Speed 18 mph    
Visibility 10 miles    
Events Rain    
Averages and records for this station are not official NWS values.
T = Trace of Precipitation, MM = Missing Value Source: NWS Daily Summary

Daily Weather History Graph

Daily Weather History Graph

Search for Another Location

Airport or City:

Trip Planner

Search our weather history database for the weather conditions in past years. The results will help you decide how hot, cold, wet, or windy it might be!

Date:

Astronomy

May. 07, 2013 Rise Set
Actual Time 6:07 AM EDT 7:58 PM EDT
Civil Twilight 5:39 AM EDT 8:26 PM EDT
Nautical Twilight 5:05 AM EDT 9:00 PM EDT
Astronomical Twilight 4:29 AM EDT 9:37 PM EDT
Moon 4:36 AM EDT (5/7) 5:59 PM EDT (5/7)
Length of Visible Light 14h 47m
Length of Day
13h 51m
Waning Crescent, 5% of the Moon is Illuminated
May 7
Waning Crescent
May 9
New
May 18
First Quarter
May 25
Full
May 31
Last Quarter

Hourly Weather History & Observations

Time (EDT) Temp. Dew Point Humidity Pressure Visibility Wind Dir Wind Speed Gust Speed Precip Events Conditions
12:15 AM 63.0 °F 63.0 °F 100% 29.93 in 10.0 mi ESE 5.8 mph - N/A   Clear
12:35 AM 63.5 °F 63.5 °F 100% 29.93 in 10.0 mi East 6.9 mph - N/A   Scattered Clouds
12:55 AM 64.0 °F 64.0 °F 100% 29.92 in 10.0 mi East 6.9 mph - N/A   Mostly Cloudy
1:15 AM 64.2 °F 64.2 °F 100% 29.91 in 10.0 mi East 8.1 mph - N/A   Mostly Cloudy
1:35 AM 64.4 °F 64.4 °F 100% 29.90 in 7.0 mi East 5.8 mph - N/A Rain Light Rain
1:55 AM 64.4 °F 64.4 °F 100% 29.89 in 10.0 mi ESE 9.2 mph - N/A   Light Drizzle
2:15 AM 64.6 °F 64.6 °F 100% 29.89 in 10.0 mi ESE 10.4 mph - N/A   Overcast
2:35 AM 64.6 °F 64.6 °F 100% 29.88 in 10.0 mi ESE 9.2 mph - N/A   Overcast
2:55 AM 64.0 °F 64.0 °F 100% 29.88 in 10.0 mi ESE 5.8 mph - N/A   Mostly Cloudy
3:15 AM 63.7 °F 63.7 °F 100% 29.88 in 10.0 mi East 9.2 mph - N/A   Mostly Cloudy
3:35 AM 63.5 °F 63.5 °F 100% 29.89 in 10.0 mi ESE 5.8 mph - N/A   Overcast
3:55 AM 63.5 °F 63.5 °F 100% 29.88 in 10.0 mi ESE 5.8 mph - N/A   Overcast
4:15 AM 63.5 °F 63.5 °F 100% 29.88 in 10.0 mi SE 6.9 mph - N/A   Mostly Cloudy
4:35 AM 63.5 °F 63.5 °F 100% 29.88 in 10.0 mi SE 6.9 mph - N/A   Mostly Cloudy
4:55 AM 63.5 °F 63.5 °F 100% 29.88 in 10.0 mi ESE 8.1 mph - N/A   Mostly Cloudy
5:15 AM 63.5 °F 63.5 °F 100% 29.89 in 10.0 mi SSE 5.8 mph - N/A   Mostly Cloudy
5:35 AM 63.3 °F 63.3 °F 100% 29.88 in 10.0 mi South 4.6 mph - N/A   Mostly Cloudy
5:55 AM 63.5 °F 63.5 °F 100% 29.89 in 10.0 mi SSE 3.5 mph - N/A   Overcast
6:15 AM 63.5 °F 63.5 °F 100% 29.89 in 10.0 mi SSW 3.5 mph - N/A   Overcast
6:35 AM 63.0 °F 63.0 °F 100% 29.90 in 7.0 mi SSE 3.5 mph - N/A   Overcast
6:55 AM 63.1 °F 63.1 °F 100% 29.90 in 7.0 mi Calm Calm - N/A   Overcast
7:15 AM 63.7 °F 63.7 °F 100% 29.89 in 7.0 mi Calm Calm - N/A   Scattered Clouds
7:35 AM 64.0 °F 64.0 °F 100% 29.90 in 10.0 mi SSE 3.5 mph - N/A   Scattered Clouds
7:55 AM 63.5 °F 63.5 °F 100% 29.91 in 10.0 mi South 4.6 mph - N/A   Scattered Clouds
8:15 AM 64.4 °F 63.9 °F 98% 29.91 in 10.0 mi SSE 4.6 mph - N/A   Scattered Clouds
8:35 AM 64.9 °F 64.0 °F 97% 29.92 in 10.0 mi SE 6.9 mph - N/A   Clear
8:55 AM 67.1 °F 63.7 °F 89% 29.92 in 10.0 mi South 8.1 mph - N/A   Clear
9:15 AM 68.0 °F 61.7 °F 80% 29.93 in 10.0 mi SSE 5.8 mph - N/A   Clear
9:35 AM 68.9 °F 60.3 °F 74% 29.93 in 10.0 mi South 8.1 mph - N/A   Clear
9:55 AM 69.1 °F 59.0 °F 70% 29.94 in 10.0 mi South 11.5 mph - N/A   Clear
10:15 AM 69.6 °F 60.1 °F 72% 29.94 in 10.0 mi South 10.4 mph - N/A   Clear
10:35 AM 70.7 °F 59.5 °F 68% 29.94 in 10.0 mi South 11.5 mph - N/A   Clear
10:55 AM 71.2 °F 59.2 °F 66% 29.94 in 10.0 mi SSE 10.4 mph - N/A   Clear
11:15 AM 71.8 °F 59.2 °F 64% 29.93 in 10.0 mi South 12.7 mph - N/A   Clear
11:35 AM 71.2 °F 58.1 °F 63% 29.93 in 10.0 mi South 9.2 mph - N/A   Clear
11:55 AM 72.9 °F 57.0 °F 57% 29.92 in 10.0 mi South 10.4 mph - N/A   Clear
12:15 PM 73.4 °F 51.1 °F 45% 29.92 in 10.0 mi SSW 11.5 mph 16.1 mph N/A   Clear
12:35 PM 73.2 °F 53.8 °F 50% 29.92 in 10.0 mi SSW 8.1 mph - N/A   Clear
12:55 PM 73.4 °F 54.9 °F 52% 29.92 in 10.0 mi SW 9.2 mph - N/A   Clear
1:15 PM 73.2 °F 54.7 °F 52% 29.91 in 10.0 mi SW 10.4 mph - N/A   Clear
1:55 PM 73.9 °F 53.6 °F 49% 29.91 in 10.0 mi South 10.4 mph - N/A   Clear
2:15 PM 72.9 °F 53.1 °F 50% 29.90 in 10.0 mi SSW 6.9 mph - N/A   Scattered Clouds
2:35 PM 73.8 °F 53.2 °F 49% 29.89 in 10.0 mi SW 10.4 mph - N/A   Scattered Clouds
2:55 PM 74.5 °F 53.4 °F 48% 29.89 in 10.0 mi SW 9.2 mph - N/A   Scattered Clouds
3:15 PM 72.9 °F 52.0 °F 48% 29.89 in 10.0 mi SW 8.1 mph - N/A   Mostly Cloudy
3:35 PM 72.1 °F 51.3 °F 48% 29.89 in 10.0 mi SSW 12.7 mph - N/A   Mostly Cloudy
3:55 PM 71.1 °F 50.2 °F 48% 29.88 in 10.0 mi SSW 11.5 mph - N/A   Mostly Cloudy
4:15 PM 68.5 °F 53.4 °F 58% 29.89 in 10.0 mi South 15.0 mph - N/A   Light Drizzle
4:35 PM 68.0 °F 53.1 °F 59% 29.88 in 10.0 mi SSW 8.1 mph - N/A   Scattered Clouds
4:55 PM 68.4 °F 53.4 °F 59% 29.89 in 10.0 mi SW 9.2 mph - N/A   Mostly Cloudy
5:15 PM 66.9 °F 53.4 °F 62% 29.89 in 10.0 mi SSW 6.9 mph - N/A   Light Drizzle
5:35 PM 67.1 °F 54.3 °F 63% 29.89 in 10.0 mi SSW 9.2 mph - N/A   Scattered Clouds
5:55 PM 66.7 °F 55.4 °F 67% 29.90 in 10.0 mi South 6.9 mph - N/A   Mostly Cloudy
6:15 PM 66.0 °F 53.8 °F 65% 29.91 in 10.0 mi South 10.4 mph - N/A   Mostly Cloudy
6:35 PM 65.5 °F 52.3 °F 62% 29.91 in 10.0 mi SSE 13.8 mph 18.4 mph N/A   Scattered Clouds
6:55 PM 65.5 °F 51.8 °F 61% 29.91 in 10.0 mi South 11.5 mph 16.1 mph N/A   Clear
7:15 PM 64.6 °F 52.2 °F 64% 29.91 in 10.0 mi South 10.4 mph - N/A   Clear
7:35 PM 63.7 °F 52.7 °F 67% 29.92 in 10.0 mi South 9.2 mph - N/A   Clear
7:55 PM 63.0 °F 51.8 °F 67% 29.93 in 10.0 mi SSE 9.2 mph - N/A   Clear
8:15 PM 62.1 °F 51.8 °F 69% 29.93 in 10.0 mi SSE 6.9 mph - N/A   Clear
8:35 PM 61.5 °F 52.2 °F 71% 29.94 in 10.0 mi SSE 8.1 mph - N/A   Clear
8:55 PM 61.0 °F 52.2 °F 73% 29.94 in 10.0 mi SSE 5.8 mph - N/A   Clear
9:15 PM 60.1 °F 53.2 °F 78% 29.95 in 10.0 mi SSE 5.8 mph - N/A   Clear
9:35 PM 59.9 °F 54.1 °F 81% 29.96 in 10.0 mi SSE 8.1 mph - N/A   Clear
9:55 PM 59.7 °F 54.9 °F 84% 29.97 in 10.0 mi SSE 6.9 mph - N/A   Clear
10:15 PM 59.4 °F 54.9 °F 85% 29.97 in 10.0 mi SSE 5.8 mph - N/A   Clear
10:35 PM 58.5 °F 54.7 °F 87% 29.97 in 10.0 mi SE 6.9 mph - N/A   Clear
10:55 PM 58.3 °F 54.9 °F 88% 29.97 in 10.0 mi SSE 6.9 mph - N/A   Clear
11:15 PM 58.1 °F 54.9 °F 89% 29.97 in 10.0 mi SSE 8.1 mph - N/A   Clear
11:35 PM 57.7 °F 55.0 °F 91% 29.97 in 10.0 mi SSE 4.6 mph - N/A   Clear
11:55 PM 57.7 °F 55.6 °F 92% 29.97 in 10.0 mi SSE 5.8 mph - N/A   Clear